Total_Precipitation_Accumulation
1.17 1.24 1.32 1.31 1.34 1.41 1.47 1.58 1.70 1.65 1.50 1.29 1.26 1.21 1.17 1.16 1.25 1.12 1.14 1.10 1.06 1.12 1.13 1.17 1.24 1.39 1.43 1.33 1.22 1.13 1.10 1.15 1.24 1.34 1.55 1.78 1.98 2.16
1.03 1.02 1.03 1.02 1.06 1.12 1.22 1.33 1.45 1.54 1.49 1.24 1.19 1.27 1.25 1.14 1.31 1.21 1.17 1.12 1.09 1.30 1.43 1.35 1.31 1.49 1.64 1.61 1.43 1.29 1.22 1.21 1.23 1.24 1.31 1.48 1.69 1.87
0.81 0.82 0.86 0.89 0.94 0.96 1.00 1.14 1.34 1.47 1.50 1.26 1.13 1.21 1.33 1.29 1.33 1.29 1.19 1.14 1.22 1.61 1.81 2.00 1.74 1.62 1.72 1.69 1.58 1.40 1.28 1.23 1.28 1.34 1.40 1.46 1.51 1.58
0.76 0.80 0.81 0.82 0.83 0.90 0.96 1.03 1.18 1.36 1.51 1.46 1.26 1.28 1.33 1.34 1.39 1.40 1.24 1.09 1.14 1.59 1.89 2.20 2.15 1.92 1.93 1.77 1.59 1.40 1.28 1.22 1.25 1.31 1.35 1.39 1.43 1.49
0.69 0.74 0.78 0.89 0.88 0.89 0.95 0.97 1.07 1.19 1.43 1.52 1.40 1.38 1.45 1.48 1.59 1.50 1.34 1.29 1.08 1.34 1.76 2.09 2.26 2.29 2.37 2.23 1.92 1.56 1.34 1.21 1.13 1.15 1.20 1.25 1.26 1.24
0.61 0.67 0.71 0.83 0.90 0.95 0.95 0.97 1.01 1.14 1.32 1.49 1.49 1.47 1.54 1.61 1.64 1.62 1.48 1.32 1.19 1.16 1.61 2.06 2.40 2.43 2.59 2.70 2.41 1.93 1.52 1.27 1.12 1.05 0.99 0.96 1.00 0.99
0.58 0.60 0.64 0.74 0.82 0.82 0.77 0.81 0.96 1.16 1.27 1.44 1.50 1.48 1.49 1.60 1.59 1.42 1.35 1.27 1.14 1.10 1.31 1.70 2.37 2.70 2.76 2.81 2.70 2.19 1.72 1.41 1.19 1.06 0.99 0.94 0.93 0.93
0.60 0.61 0.59 0.60 0.59 0.62 0.68 0.73 0.84 1.09 1.42 1.62 1.58 1.51 1.39 1.37 1.40 1.35 1.37 1.36 1.31 1.05 1.04 1.34 1.90 2.63 2.87 2.84 2.75 2.17 1.63 1.33 1.18 1.08 1.03 1.00 0.98 0.98
0.65 0.65 0.54 0.47 0.56 0.63 0.68 0.72 0.84 1.00 1.29 1.62 1.71 1.50 1.42 1.37 1.40 1.39 1.44 1.50 1.39 1.07 1.07 1.35 1.71 2.35 2.53 2.53 2.43 1.86 1.43 1.18 1.06 1.00 0.98 0.96 0.93 0.95
0.61 0.65 0.67 0.64 0.60 0.64 0.70 0.79 0.94 1.07 1.17 1.27 1.57 1.41 1.19 1.18 1.25 1.29 1.37 1.40 1.32 1.14 1.12 1.42 1.71 2.14 2.13 2.17 2.09 1.65 1.31 1.12 0.99 0.89 0.87 0.87 0.85 0.87
0.55 0.55 0.55 0.58 0.62 0.71 0.85 1.07 1.21 1.33 1.27 1.40 1.56 1.50 1.34 1.23 1.13 1.18 1.39 1.44 1.40 1.25 1.17 1.40 1.62 1.76 1.85 1.90 1.71 1.53 1.27 1.10 0.98 0.88 0.82 0.79 0.75 0.79
0.60 0.60 0.53 0.50 0.61 0.76 1.00 1.29 1.43 1.49 1.36 1.46 1.70 1.74 1.56 1.51 1.46 1.35 1.46 1.50 1.46 1.40 1.17 1.22 1.41 1.45 1.68 1.67 1.51 1.38 1.30 1.26 1.12 0.99 0.89 0.76 0.65 0.64
0.58 0.66 0.64 0.57 0.63 0.84 1.05 1.23 1.39 1.42 1.46 1.52 1.55 1.59 1.65 1.66 1.61 1.53 1.48 1.46 1.42 1.36 1.07 1.15 1.34 1.37 1.48 1.53 1.51 1.48 1.41 1.37 1.24 1.18 1.14 0.98 0.80 0.70
0.58 0.63 0.65 0.62 0.67 0.88 1.05 1.29 1.49 1.57 1.55 1.57 1.43 1.36 1.32 1.33 1.38 1.34 1.28 1.22 1.19 1.14 1.02 1.07 1.32 1.46 1.40 1.34 1.51 1.55 1.56 1.59 1.49 1.38 1.32 1.23 1.06 0.97
0.45 0.52 0.58 0.63 0.78 1.09 1.26 1.42 1.59 1.69 1.71 1.57 1.38 1.28 1.14 1.06 1.05 1.10 1.10 1.08 1.02 0.92 0.85 0.95 1.18 1.33 1.34 1.31 1.48 1.55 1.65 1.80 1.70 1.64 1.52 1.38 1.29 1.14
0.43 0.56 0.68 0.76 0.96 1.27 1.48 1.66 1.71 1.62 1.45 1.37 1.28 1.20 1.05 0.98 0.98 0.91 0.91 0.95 0.98 0.98 0.89 0.88 1.06 1.24 1.33 1.26 1.32 1.44 1.54 1.86 1.83 1.62 1.52 1.50 1.41 1.26
0.38 0.59 0.77 0.92 1.14 1.36 1.54 1.60 1.58 1.47 1.35 1.16 1.08 1.11 1.09 1.00 0.94 0.83 0.80 0.83 0.92 0.97 0.95 0.92 0.95 1.03 1.07 1.11 1.25 1.36 1.46 1.64 1.67 1.47 1.35 1.41 1.45 1.32
0.41 0.62 0.76 0.87 1.07 1.30 1.44 1.41 1.30 1.23 1.14 1.02 0.96 0.93 0.93 0.90 0.85 0.77 0.70 0.71 0.80 0.79 0.75 0.74 0.80 0.89 0.89 0.91 1.09 1.23 1.28 1.40 1.39 1.23 1.08 1.15 1.37 1.37
0.44 0.63 0.75 0.85 1.03 1.18 1.23 1.22 1.17 1.08 0.99 0.94 0.90 0.82 0.76 0.74 0.68 0.63 0.61 0.64 0.63 0.61 0.57 0.54 0.59 0.70 0.81 0.98 1.03 1.06 1.13 1.19 1.14 1.05 0.96 0.99 1.22 1.35
0.48 0.65 0.76 0.83 0.91 0.97 1.04 1.09 1.09 1.00 0.91 0.87 0.87 0.81 0.73 0.66 0.60 0.56 0.55 0.53 0.52 0.52 0.50 0.45 0.41 0.48 0.60 0.74 0.93 0.98 0.93 0.91 0.92 0.96 0.90 0.93 1.07 1.15
0.53 0.64 0.72 0.78 0.80 0.81 0.85 0.91 0.92 0.90 0.83 0.80 0.79 0.77 0.71 0.63 0.54 0.47 0.43 0.34 0.38 0.44 0.44 0.39 0.32 0.31 0.37 0.49 0.65 0.74 0.74 0.78 0.72 0.70 0.69 0.73 0.80 0.80
0.52 0.59 0.65 0.69 0.68 0.67 0.68 0.72 0.75 0.75 0.72 0.69 0.68 0.67 0.60 0.52 0.47 0.42 0.39 0.37 0.38 0.36 0.31 0.27 0.24 0.25 0.32 0.45 0.56 0.61 0.58 0.55 0.55 0.54 0.53 0.52 0.54 0.69
0.48 0.51 0.53 0.55 0.54 0.54 0.54 0.55 0.59 0.62 0.63 0.65 0.63 0.58 0.50 0.44 0.39 0.35 0.31 0.28 0.28 0.26 0.26 0.27 0.25 0.27 0.28 0.31 0.37 0.42 0.43 0.44 0.46 0.48 0.49 0.54 0.54 0.60